FW1683 Weather Reports


Display with metric or nautical units.
time (UTC)temp
F
wind
direction
speed
MPH
gust
MPH
rain 1hr
in
rain 24hr
in
rain mn
in
humidity
%
barometer
mb
20260905060004 75 291 4.0 6.0 0.00 0.00 0.00 75 1019.7
20260905055006 75 297 3.0 5.0 0.00 0.00 0.00 76 1019.7
20260905054005 75 287 2.0 4.0 0.00 0.00 0.00 76 1019.7
20260905053004 75 313 1.0 3.0 0.00 0.00 0.00 76 1019.5
20260905051004 75 275 1.0 2.0 0.00 0.00 0.00 77 1019.5
20260905050006 75 270 2.0 3.0 0.00 0.00 0.00 77 1019.4
20260905045004 75 269 2.0 3.0 0.00 0.00 0.00 76 1019.4
20260905044006 75 273 1.0 2.0 0.00 0.00 0.00 77 1019.3
20260905042034 75 259 2.0 4.0 0.00 0.00 0.00 76 1019.3
20260905041006 76 269 2.0 3.0 0.00 0.00 0.00 76 1019.3
20260905040006 76 270 2.0 3.0 0.00 0.00 0.00 76 1019.3
20260905035005 76 275 2.0 3.0 0.00 0.00 0.00 76 1019.3
20260905033006 76 267 3.0 5.0 0.00 0.00 0.00 78 1019.2
20260905032006 76 265 2.0 3.0 0.00 0.00 0.00 79 1019.1
20260905031004 76 271 2.0 3.0 0.00 0.00 0.00 80 1019.2
20260905030007 76 270 1.0 1.0 0.00 0.00 0.00 81 1019.1
20260905025004 77 270 0.0 1.0 0.00 0.00 0.00 81 1019.0
20260905024004 77 270 0.0 1.0 0.00 0.00 0.00 80 1019.0
20260905022011 77 270 0.0 1.0 0.00 0.00 0.00 80 1019.0
20260905020006 77 283 1.0 2.0 0.00 0.00 0.00 80 1018.8
20260905015004 77 270 2.0 4.0 0.00 0.00 0.00 81 1018.9
20260905012004 78 22 2.0 3.0 0.00 0.00 0.00 82 1019.0
20260905011004 78 355 2.0 3.0 0.00 0.00 0.00 82 1019.0
20260905005004 77 260 3.0 4.0 0.00 0.00 0.00 82 1019.1
20260905004005 79 190 0.0 1.0 0.00 0.00 0.00 79 1019.0
20260905003026 78 84 1.0 2.0 0.00 0.00 0.00 81 1018.9
20260905002004 79 207 0.0 1.0 0.00 0.00 0.00 80 1018.9
20260905001004 79 275 2.0 2.0 0.00 0.00 0.00 82 1019.0
20260905000008 79 265 2.0 3.0 0.00 0.00 0.00 82 1019.0
20260904235004 79 266 2.0 3.0 0.00 0.00 0.00 81 1019.1
20260904234005 80 260 2.0 4.0 0.00 0.00 0.00 81 1019.1
20260904232004 80 339 1.0 3.0 0.00 0.00 0.00 81 1019.2
20260904231004 80 13 2.0 4.0 0.00 0.00 0.00 81 1019.2
20260904230007 80 347 3.0 5.0 0.00 0.00 0.00 81 1019.1
20260904225004 81 338 3.0 5.0 0.00 0.00 0.00 81 1019.0
20260904223007 81 334 3.0 4.0 0.00 0.00 0.00 81 1018.9
20260904222008 81 351 2.0 4.0 0.00 0.00 0.00 81 1018.8
20260904221004 81 356 1.0 2.0 0.00 0.00 0.00 80 1018.8
20260904220007 81 8 2.0 4.0 0.00 0.00 0.00 80 1018.9
20260904215004 81 18 2.0 3.0 0.00 0.00 0.00 80 1018.9
20260904214006 81 53 3.0 5.0 0.00 0.00 0.00 80 1018.9
20260904212004 81 25 3.0 5.0 0.00 0.00 0.00 78 1018.9
20260904211004 82 34 3.0 4.0 0.00 0.00 0.00 78 1018.9
20260904210008 82 45 4.0 6.0 0.00 0.00 0.00 77 1019.0
20260904205007 82 10 4.0 7.0 0.00 0.00 0.00 76 1019.0
20260904204011 82 18 3.0 6.0 0.00 0.00 0.00 76 1018.9
20260904202005 82 27 4.0 6.0 0.00 0.00 0.00 75 1018.8
20260904201006 82 42 4.0 6.0 0.00 0.00 0.00 73 1018.7
20260904195004 83 19 3.0 5.0 0.00 0.00 0.00 71 1018.6
20260904194005 83 20 3.0 5.0 0.00 0.00 0.00 71 1018.4
20260904193005 83 32 4.0 6.0 0.00 0.00 0.00 71 1018.2
20260904191004 83 21 5.0 8.0 0.00 0.00 0.00 70 1018.2
20260904190006 83 31 4.0 7.0 0.00 0.00 0.00 70 1018.0
20260904185004 83 47 4.0 7.0 0.00 0.00 0.00 70 1017.9
20260904184006 84 42 4.0 6.0 0.00 0.00 0.00 70 1017.8
20260904183006 84 28 4.0 7.0 0.00 0.00 0.00 70 1017.7
20260904182004 84 38 5.0 8.0 0.00 0.00 0.00 70 1017.8
20260904181031 85 54 6.0 10.0 0.00 0.00 0.00 69 1017.8
20260904180007 85 46 4.0 7.0 0.00 0.00 0.00 68 1017.7
20260904175004 85 52 6.0 10.0 0.00 0.00 0.00 68 1017.7
20260904173005 86 46 6.0 10.0 0.00 0.00 0.00 67 1017.6
20260904171003 87 22 7.0 11.0 0.00 0.00 0.00 64 1017.6
20260904170005 88 64 6.0 9.0 0.00 0.00 0.00 62 1017.5
20260904165004 89 61 6.0 10.0 0.00 0.00 0.00 61 1017.5
20260904164006 89 59 7.0 11.0 0.00 0.00 0.00 60 1017.5
20260904161005 93 40 7.0 11.0 0.00 0.00 0.00 54 1017.6
20260904160005 94 37 6.0 10.0 0.00 0.00 0.00 52 1017.7
20260904155007 93 72 5.0 8.0 0.00 0.00 0.00 53 1017.7
20260904153008 92 88 6.0 11.0 0.00 0.00 0.00 54 1017.5
20260904152005 92 97 6.0 10.0 0.00 0.00 0.00 52 1017.6
20260904151004 92 91 7.0 12.0 0.00 0.00 0.00 51 1017.7
20260904150007 93 57 8.0 13.0 0.00 0.00 0.00 50 1017.7
20260904145004 93 77 10.0 15.0 0.00 0.00 0.00 46 1017.7
20260904144005 93 72 8.0 14.0 0.00 0.00 0.00 46 1017.7
20260904143004 92 62 11.0 19.0 0.00 0.00 0.00 49 1017.7
20260904142004 93 83 8.0 14.0 0.00 0.00 0.00 52 1017.6
20260904141006 92 97 8.0 13.0 0.00 0.00 0.00 54 1017.6
20260904140006 92 90 9.0 14.0 0.00 0.00 0.00 51 1017.8
20260904135005 92 110 8.0 12.0 0.00 0.00 0.00 50 1017.8
20260904134006 93 85 8.0 13.0 0.00 0.00 0.00 49 1017.8
20260904133005 93 96 9.0 14.0 0.00 0.00 0.00 49 1017.9
20260904132004 93 88 8.0 12.0 0.00 0.00 0.00 50 1018.1
20260904131004 91 103 7.0 12.0 0.00 0.00 0.00 54 1018.3
20260904130006 90 123 8.0 13.0 0.00 0.00 0.00 57 1018.3
20260904125004 90 129 7.0 12.0 0.00 0.00 0.00 56 1018.4
20260904124005 90 111 8.0 12.0 0.00 0.00 0.00 57 1018.4
20260904123007 89 134 8.0 13.0 0.00 0.00 0.00 58 1018.5
20260904122004 89 103 8.0 12.0 0.00 0.00 0.00 59 1018.6
20260904121006 88 110 8.0 13.0 0.00 0.00 0.00 61 1018.7
20260904115004 90 145 7.0 11.0 0.00 0.00 0.00 60 1018.9
20260904113005 89 105 8.0 12.0 0.00 0.00 0.00 61 1018.9
20260904112004 88 122 9.0 15.0 0.00 0.00 0.00 65 1019.0
20260904111004 88 142 9.0 14.0 0.00 0.00 0.00 64 1019.1
20260904110005 88 118 9.0 15.0 0.00 0.00 0.00 64 1019.2
20260904105003 89 115 9.0 13.0 0.00 0.00 0.00 63 1019.3
20260904104005 88 127 9.0 13.0 0.00 0.00 0.00 63 1019.3
20260904103006 90 110 7.0 11.0 0.00 0.00 0.00 59 1019.4
20260904101004 90 125 6.0 10.0 0.00 0.00 0.00 53 1019.6
20260904100005 90 135 5.0 8.0 0.00 0.00 0.00 52 1019.7
20260904095004 90 124 5.0 9.0 0.00 0.00 0.00 52 1019.7
20260904093006 90 129 4.0 6.0 0.00 0.00 0.00 48 1019.7
20260904092004 89 238 4.0 7.0 0.00 0.00 0.00 49 1019.7
20260904090004 88 221 3.0 5.0 0.00 0.00 0.00 49 1019.7
20260904085004 88 189 2.0 4.0 0.00 0.00 0.00 50 1019.6
20260904084005 87 235 3.0 5.0 0.00 0.00 0.00 54 1019.6
20260904083006 86 240 3.0 4.0 0.00 0.00 0.00 55 1019.6
20260904082004 86 284 2.0 4.0 0.00 0.00 0.00 56 1019.5
20260904081007 86 260 1.0 3.0 0.00 0.00 0.00 56 1019.5
20260904080006 83 273 4.0 6.0 0.00 0.00 0.00 60 1019.5
20260904075004 83 307 2.0 3.0 0.00 0.00 0.00 61 1019.5
20260904074004 82 305 3.0 5.0 0.00 0.00 0.00 63 1019.5
20260904073005 82 308 3.0 4.0 0.00 0.00 0.00 64 1019.5
20260904072004 81 294 1.0 2.0 0.00 0.00 0.00 66 1019.6
20260904071004 80 281 1.0 3.0 0.00 0.00 0.00 69 1019.7
20260904070006 79 291 2.0 3.0 0.00 0.00 0.00 70 1019.7
20260904065004 77 263 4.0 6.0 0.00 0.00 0.00 71 1019.8
20260904064005 77 278 4.0 6.0 0.00 0.00 0.00 73 1019.8
20260904063005 76 306 5.0 7.0 0.00 0.00 0.00 77 1019.8
20260904062004 76 297 4.0 6.0 0.00 0.00 0.00 79 1019.8
20260904061004 76 273 3.0 5.0 0.00 0.00 0.00 82 1019.7